Theta_e
311 311 311 310 309 309 308 308 308 308 309 310 310 310 311 312 312 312 312 312 313 313 313 314 314 313 311 309 308 308 308 307 307 307 307 306 305 304 303 301 300 299 298 297 297 296 296 295 294 293 292 291 290 289 289 290 290 290 289 289 288 288 288 287 286 286 286 286 286 286 285 285 284 284 283 284 284 283 283 283 283 284 283 283 283
311 310 310 310 309 308 308 308 307 307 308 309 309 309 309 311 312 313 312 312 312 312 312 312 312 310 309 308 307 308 308 308 307 307 306 305 305 303 302 301 299 299 298 297 296 296 295 295 294 292 291 290 289 289 289 289 289 289 288 288 288 287 287 287 286 285 286 285 285 285 285 284 284 284 283 284 283 283 283 283 284 283 283 283 283
310 310 310 309 309 309 308 308 307 307 307 308 308 308 309 309 311 312 313 312 311 310 310 310 310 309 307 306 307 307 308 307 307 306 305 305 304 303 302 301 299 298 297 297 296 295 295 294 293 291 290 289 289 289 289 288 288 288 288 287 287 287 287 287 286 285 285 285 285 284 284 284 284 283 283 283 283 283 283 284 284 283 283 283 283
310 310 310 309 308 308 307 307 307 306 307 307 307 308 308 309 309 311 312 311 310 309 307 307 307 307 306 306 306 307 308 307 306 305 305 305 304 303 301 300 299 298 297 297 297 296 294 293 292 290 289 288 288 288 288 288 288 288 287 287 287 287 287 286 286 285 285 284 284 284 284 284 283 283 283 283 283 283 283 284 283 283 282 282 283
310 309 309 309 308 307 307 306 306 306 306 306 306 307 307 308 309 310 311 311 309 308 306 305 305 305 305 306 306 306 307 307 306 305 305 304 304 303 301 300 299 298 298 297 297 296 294 293 291 289 288 288 288 288 288 288 288 287 287 287 287 286 286 286 286 285 285 284 284 284 283 283 283 282 282 282 282 282 283 283 283 282 282 282 283
310 309 309 309 308 307 306 306 306 306 306 306 306 306 306 307 308 309 310 310 308 307 305 304 304 304 305 305 306 305 305 305 305 305 305 304 303 301 300 299 298 298 297 297 297 296 295 293 291 289 288 288 288 288 288 288 287 287 287 287 287 286 286 285 285 285 285 284 284 283 283 283 283 282 282 282 282 282 282 282 282 283 282 282 283
309 309 309 308 308 308 307 306 306 305 305 305 305 305 306 306 307 308 309 309 308 306 305 304 304 303 304 304 305 304 303 302 302 303 303 302 301 300 299 298 297 296 296 296 296 296 294 292 290 289 288 289 289 288 288 287 287 288 288 288 287 286 286 285 285 285 285 284 283 283 283 283 282 282 282 282 282 282 282 282 282 283 283 282 282
309 309 308 308 308 308 307 306 305 305 305 304 304 304 305 305 306 307 307 307 307 306 305 304 303 302 302 302 303 303 302 300 300 300 300 299 299 299 298 297 296 295 294 294 295 294 293 291 290 289 289 289 289 289 288 288 289 288 288 288 287 287 286 286 285 285 284 284 284 283 283 282 282 282 282 281 281 282 283 282 282 283 283 282 282
308 308 308 308 308 308 307 306 305 304 304 304 303 303 303 304 304 305 306 306 305 305 305 305 303 302 301 300 300 301 300 299 299 298 298 297 297 296 296 296 295 294 293 293 293 292 291 290 289 289 289 289 289 289 289 291 292 291 289 288 288 287 287 286 285 285 284 283 283 283 282 282 282 282 281 282 283 283 284 282 282 282 282 281 281
308 308 307 308 308 307 306 305 305 304 303 303 303 302 302 303 303 303 304 304 304 304 303 303 303 302 301 299 298 298 298 298 298 297 296 296 296 295 295 295 294 293 293 291 289 289 289 289 289 288 288 289 288 288 290 292 294 293 292 291 290 290 289 287 286 285 284 283 283 283 281 282 283 283 283 284 284 283 282 282 281 281 281 280 281
308 308 307 308 307 306 306 305 304 303 303 302 302 301 301 301 301 302 302 302 302 302 301 301 301 301 300 299 298 297 297 297 297 296 295 295 295 295 294 294 293 292 291 290 289 287 287 288 288 288 288 288 288 289 291 293 293 292 292 293 293 292 291 289 288 286 284 284 284 283 282 283 285 285 284 284 283 283 282 282 281 281 280 280 280
307 307 307 307 306 306 305 305 304 303 302 302 301 301 300 299 300 300 300 300 300 299 300 300 300 299 298 298 297 296 296 296 296 295 294 295 295 295 293 293 293 292 291 290 289 287 287 286 287 287 288 288 288 289 291 292 292 292 292 292 293 293 292 291 290 288 286 285 284 284 284 284 285 286 285 284 283 283 282 282 281 281 280 280 279
307 307 307 307 306 306 305 304 303 302 302 301 301 300 299 299 299 299 298 298 298 298 298 298 298 298 297 296 296 295 295 295 295 294 294 294 294 294 293 293 293 292 291 289 288 287 286 286 286 286 287 287 288 289 291 292 291 291 292 292 293 292 291 290 289 288 288 287 285 285 286 286 286 286 285 284 283 282 282 281 281 281 280 280 280
306 306 306 306 306 305 304 303 303 302 301 301 300 300 299 298 298 298 297 297 296 296 297 297 296 296 296 296 295 294 294 294 295 294 294 293 293 293 294 293 292 292 291 289 287 286 286 286 286 286 287 287 287 290 292 291 290 291 292 292 293 293 292 289 287 286 285 285 284 285 287 287 286 285 284 283 282 282 281 281 281 280 280 280 280
305 306 306 306 305 304 303 303 302 301 301 300 299 299 299 298 297 297 296 296 296 296 296 295 295 295 295 295 294 293 293 294 294 293 292 292 292 292 291 290 290 290 290 288 286 286 286 286 287 287 287 286 287 290 292 292 291 292 292 293 293 293 292 291 289 286 285 284 284 285 286 286 285 283 282 282 281 281 281 280 280 280 279 279 279
305 305 305 305 304 304 303 303 301 301 300 299 299 298 298 298 297 296 295 295 295 295 295 295 295 294 294 293 293 292 293 293 293 292 292 292 291 290 289 287 287 287 287 286 285 285 285 286 286 286 287 286 288 291 293 292 291 292 292 293 293 292 292 292 290 288 286 284 284 284 284 284 283 282 281 281 281 281 280 279 279 279 279 279 278
305 305 304 305 304 304 304 302 301 300 299 298 298 298 298 297 296 296 295 294 294 294 294 294 294 293 293 292 292 291 292 292 291 291 291 291 290 289 288 286 285 285 284 284 284 284 284 285 285 286 286 286 288 291 292 291 292 292 292 292 292 291 292 291 290 288 286 284 283 282 282 282 281 281 281 281 281 281 280 279 279 279 278 278 277
305 304 304 305 305 304 303 302 301 300 298 298 297 297 297 296 296 295 295 294 294 293 293 293 292 292 292 292 291 291 291 291 290 289 289 289 289 289 287 285 285 284 284 283 283 283 284 284 285 286 286 287 288 291 292 291 291 292 291 291 291 291 291 290 289 288 287 284 283 282 281 281 281 281 281 281 281 281 281 280 280 279 278 278 277
305 305 305 305 304 303 303 302 301 300 298 298 297 297 296 296 295 295 294 294 294 293 292 292 291 291 291 291 291 291 290 290 290 289 289 289 288 288 286 285 284 284 283 283 283 283 283 284 284 285 287 287 288 290 291 291 291 291 291 290 290 290 291 289 287 287 286 285 283 282 282 282 281 281 281 281 281 281 281 281 281 280 279 278 278
305 305 304 304 303 302 302 302 301 300 299 298 297 297 296 295 294 294 293 293 293 292 291 291 290 290 290 289 289 289 289 289 289 289 289 288 288 288 286 284 284 283 283 283 283 283 283 283 283 285 287 288 287 289 290 291 290 290 289 289 289 290 289 287 286 285 285 284 283 282 282 281 281 281 281 281 281 281 281 281 281 280 280 279 278
304 303 303 302 301 301 301 301 301 300 299 298 297 296 295 295 294 293 293 292 291 291 291 290 290 290 289 289 289 288 288 288 289 288 288 287 288 287 286 284 284 283 283 283 283 282 283 283 284 285 287 287 286 287 288 289 289 288 289 290 290 289 287 285 285 284 283 282 282 281 281 280 280 280 280 280 280 280 280 280 280 280 280 279 279
302 301 301 301 301 301 300 300 300 300 299 297 296 295 294 294 293 293 292 291 290 290 290 289 289 289 289 288 288 287 287 287 287 287 287 287 287 287 285 284 284 284 283 283 282 283 283 284 285 286 286 286 285 286 286 287 288 289 290 289 287 285 284 284 283 282 282 281 281 280 280 280 280 279 279 279 279 279 279 279 279 279 279 279 278
300 300 300 300 300 300 299 299 299 299 298 296 295 294 293 293 292 292 291 290 290 290 289 289 289 288 287 287 287 287 287 286 286 287 286 286 287 287 285 284 284 284 284 283 283 283 283 283 284 285 285 284 285 285 286 288 289 289 288 286 284 283 283 283 282 282 281 281 280 280 280 280 279 279 279 279 279 279 279 279 279 279 279 279 278
298 298 299 299 299 299 298 298 298 297 297 296 295 294 293 292 291 291 290 290 289 289 289 288 288 287 286 286 286 286 286 285 285 286 286 286 286 286 285 284 284 284 284 284 284 284 284 284 284 284 284 284 285 286 288 289 289 287 285 283 283 283 283 282 282 282 281 281 281 280 280 280 280 279 279 279 279 279 279 279 279 279 279 279 278
297 297 298 297 298 298 297 297 297 296 296 295 294 293 292 291 290 289 289 289 289 289 288 288 287 286 286 285 284 284 284 284 284 285 285 286 286 286 285 285 284 284 284 284 284 284 284 284 284 284 284 284 286 288 289 289 286 284 283 283 283 283 283 282 282 282 282 281 281 281 281 280 279 279 279 280 280 279 279 279 279 279 278 278 278
296 296 296 296 296 296 296 295 295 295 295 294 294 293 291 290 290 289 289 289 289 288 288 287 287 286 285 284 284 283 283 283 284 284 284 285 285 285 285 284 284 284 284 284 284 284 284 284 284 284 285 286 288 289 288 286 284 283 283 283 283 282 282 282 282 282 282 282 281 281 281 280 280 280 280 280 280 280 279 279 279 278 278 278 277
295 295 295 295 295 294 294 293 293 293 293 293 292 292 291 290 289 289 288 288 288 288 287 286 286 286 285 284 283 283 283 283 283 284 284 284 285 285 285 284 284 284 284 284 284 284 284 284 284 285 286 287 288 287 286 284 283 283 283 282 282 282 282 282 282 282 282 282 281 281 281 280 280 280 280 280 280 280 279 279 278 278 277 277 276
294 294 294 293 293 292 292 292 291 291 291 291 291 290 290 290 289 289 289 288 288 288 287 286 286 286 285 284 283 282 282 282 283 283 284 284 285 285 285 284 284 284 284 284 284 284 285 285 286 286 286 286 285 284 284 283 283 282 282 282 282 282 282 282 282 282 282 281 281 281 281 280 281 280 280 280 280 279 279 278 277 277 277 276 275
293 293 292 292 292 291 291 291 291 290 290 290 290 290 290 290 289 289 289 289 289 288 287 287 286 286 285 284 283 283 282 282 283 283 283 284 285 285 285 285 284 284 284 284 284 285 285 285 285 285 284 284 283 283 283 283 282 282 282 282 282 282 282 281 281 281 281 281 281 280 281 281 280 280 280 279 279 278 278 277 277 276 276 275 274
292 291 291 291 290 290 290 290 289 289 289 289 288 288 289 289 289 289 289 288 288 288 288 287 287 286 285 284 284 285 285 284 283 283 283 283 284 284 285 285 284 284 284 284 284 285 285 284 284 283 283 283 283 283 282 282 282 282 282 282 281 281 280 280 280 280 280 280 280 280 280 280 280 280 279 279 278 278 277 276 276 276 275 274 274
291 291 290 290 290 289 289 289 288 288 288 288 287 287 287 287 287 287 288 288 287 287 287 287 286 286 286 285 285 285 285 285 284 284 283 283 283 284 284 284 284 284 284 284 284 284 284 283 283 283 283 283 283 283 283 282 282 282 282 281 281 280 280 280 280 280 280 280 280 280 280 280 279 279 278 278 277 277 276 276 275 275 274 274 273
290 290 290 289 289 288 288 288 288 287 287 287 287 287 286 286 286 286 286 287 287 287 287 287 286 286 286 286 286 285 285 285 285 285 284 283 283 283 283 284 284 284 285 285 284 283 283 283 282 283 283 283 283 283 283 283 282 282 281 281 280 280 280 279 279 279 279 279 279 279 279 279 278 278 277 277 276 276 275 275 274 274 273 273 272
290 290 289 288 288 288 288 288 287 287 286 286 286 286 285 285 285 285 285 286 286 286 286 286 286 286 286 286 286 286 286 286 285 285 284 283 283 283 283 284 284 284 285 284 283 283 283 282 282 282 282 282 282 282 282 282 282 281 281 280 280 280 279 279 279 279 279 279 278 278 278 277 277 277 276 276 276 275 275 274 274 273 272 272 272
289 289 289 288 288 288 287 287 287 286 286 285 285 285 285 285 285 284 284 284 285 285 285 286 286 286 285 285 286 286 286 286 285 285 284 284 283 283 283 283 283 284 284 283 282 282 282 281 281 281 281 281 281 281 281 281 280 280 280 280 280 279 279 278 278 278 278 278 277 277 277 276 276 275 275 275 275 274 274 273 273 272 272 271 271
289 289 289 288 288 287 287 287 287 286 286 285 285 285 284 284 284 284 284 283 283 284 284 284 285 285 285 285 285 285 285 285 284 283 283 282 282 282 282 282 282 283 283 282 281 281 281 281 280 280 280 281 281 280 280 280 280 279 279 279 279 278 278 277 277 277 277 277 277 276 276 276 275 275 275 274 274 273 273 273 272 272 272 271 271
288 288 288 287 287 287 287 287 286 286 286 285 285 285 284 284 283 283 283 283 283 282 283 283 283 283 283 284 284 284 284 283 283 282 282 282 282 282 282 282 282 282 282 281 281 280 280 280 280 280 280 280 280 280 280 279 279 279 279 279 278 278 277 277 277 276 276 276 276 276 276 276 275 275 274 274 273 273 272 272 272 271 271 271 270
288 288 287 287 287 287 287 286 286 286 286 285 285 284 284 283 283 283 282 282 282 282 282 282 282 282 282 283 283 283 283 283 282 282 282 282 283 282 282 282 282 281 281 280 280 280 280 280 280 280 280 279 279 279 279 279 279 278 278 278 278 278 277 277 277 277 276 276 276 276 275 275 275 275 274 273 273 272 272 271 271 271 271 270 270
288 288 287 287 287 287 286 286 286 286 285 285 285 284 283 283 282 282 282 282 281 281 281 281 281 281 282 282 282 282 282 282 282 282 282 282 282 282 282 282 281 281 280 280 279 279 279 279 279 279 279 279 279 279 279 279 278 278 278 278 278 278 277 277 277 277 276 276 276 275 275 274 274 274 274 273 272 272 271 271 270 270 270 270 269
287 287 287 287 287 287 286 286 286 285 285 284 284 284 283 282 282 282 282 281 281 281 281 281 281 281 281 282 282 282 282 282 282 282 282 282 282 281 281 281 281 281 280 280 279 279 279 279 279 279 279 279 279 279 279 278 278 278 278 278 278 278 277 277 277 276 276 276 275 275 275 274 274 274 273 273 272 272 271 271 270 270 270 270 269
286 286 286 286 286 286 286 286 285 285 284 284 284 284 283 283 282 282 281 281 280 280 280 280 280 281 281 281 281 282 282 281 281 282 282 282 282 281 281 281 281 280 280 280 280 280 279 279 279 279 279 279 279 279 279 279 278 278 278 278 278 278 277 277 277 276 276 276 275 275 274 274 273 273 273 272 272 272 271 271 271 270 270 270 269
285 285 285 285 285 285 285 284 284 284 284 284 283 283 283 282 282 282 281 281 280 279 279 279 280 280 281 281 281 281 281 281 281 281 281 281 281 281 280 280 280 280 280 280 280 280 279 279 279 279 279 279 279 279 279 279 278 278 278 278 278 278 277 277 277 276 276 276 275 275 274 274 273 273 273 272 272 272 271 271 271 270 270 269 269
284 284 284 283 284 284 283 283 283 283 283 283 283 283 282 282 282 282 281 281 280 279 279 278 279 279 280 280 281 280 281 281 280 280 280 280 280 280 280 280 280 280 280 280 280 280 280 279 279 279 279 279 279 279 279 279 279 278 278 278 278 277 277 277 276 276 276 275 275 274 274 274 273 273 272 272 272 271 271 270 270 269 269 269 268
282 283 282 282 282 282 282 282 282 282 282 282 282 282 282 282 281 281 281 280 279 279 278 278 278 278 279 280 280 280 280 280 280 280 280 280 280 280 280 279 279 279 279 279 279 279 279 279 279 279 279 279 279 278 278 278 278 277 277 277 277 276 276 276 275 275 275 275 274 274 274 273 273 272 272 271 271 270 270 269 268 268 268 268 267
281 281 281 280 280 280 280 280 280 280 280 280 280 280 280 280 280 280 280 279 279 278 278 278 277 277 278 278 278 278 278 278 278 278 278 278 279 279 279 278 278 278 278 278 278 278 278 278 278 278 277 277 277 277 277 276 276 276 276 275 275 275 275 274 274 274 274 273 273 273 272 272 271 271 270 270 270 269 269 268 268 267 267 267 266
280 279 279 279 279 279 279 279 279 279 279 279 279 279 279 279 279 279 279 278 278 277 277 277 276 276 276 276 276 276 276 276 276 277 277 277 277 277 277 277 276 276 276 276 276 276 276 276 276 275 275 275 275 275 274 274 273 273 273 273 273 273 273 273 273 272 272 272 272 271 271 270 270 270 269 269 268 268 268 267 267 266 266 266 265
279 279 279 278 278 278 277 277 278 278 278 278 278 277 277 278 278 278 277 277 277 276 276 275 275 275 275 274 274 274 274 275 275 275 275 275 275 275 275 275 275 275 275 274 274 274 274 273 273 273 273 273 273 273 272 272 271 271 271 271 271 271 271 271 271 271 271 270 270 270 269 269 269 268 268 267 267 267 267 266 266 266 265 265 265
278 278 277 277 277 276 276 276 276 276 276 276 276 276 276 276 276 276 276 275 275 275 275 274 274 274 273 273 273 273 273 273 273 273 273 273 273 273 273 273 273 273 272 272 272 272 272 271 271 271 271 271 271 271 271 271 271 270 270 270 270 270 270 270 270 269 269 269 268 268 268 267 267 267 267 266 266 266 265 265 265 265 264 264 264
277 277 276 276 276 275 275 275 275 275 275 274 274 274 274 274 274 274 274 274 274 274 274 273 273 272 272 272 272 272 272 272 272 272 272 272 272 271 271 271 271 271 271 270 270 270 270 270 270 270 270 270 270 270 270 270 269 269 269 269 269 269 268 268 268 268 267 267 267 267 266 266 266 266 265 265 265 265 265 264 264 264 264 263 263
275 275 275 275 275 274 274 274 274 274 273 273 272 272 272 272 272 272 272 272 272 272 272 272 271 271 271 271 270 270 270 270 270 270 270 270 270 270 270 270 269 269 269 269 268 268 268 268 269 269 269 269 269 269 269 269 268 268 268 267 267 267 267 267 267 266 266 266 266 266 265 265 265 265 265 265 264 264 264 263 263 263 263 262 262
273 273 273 273 272 272 273 273 273 272 272 272 272 271 271 270 270 270 270 270 270 270 270 270 270 270 270 270 270 270 270 269 269 269 269 269 269 268 268 268 268 268 267 267 267 267 268 268 268 268 268 268 268 268 268 267 267 267 266 266 266 266 266 266 265 265 265 265 265 265 265 264 264 264 264 264 263 263 262 262 262 262 262 262 262
272 271 271 271 270 270 270 270 270 270 270 270 270 270 269 269 269 268 269 269 269 268 268 268 268 268 268 268 268 268 268 268 268 268 268 267 267 267 267 267 267 266 266 266 267 267 267 267 267 267 267 267 267 267 266 266 266 266 266 266 265 265 265 265 265 264 264 264 264 264 264 264 264 263 263 263 263 262 262 262 261 261 261 261 261
Wind_Speed
34 35 35 35 34 34 33 32 31 31 33 33 34 35 36 36 35 35 34 34 35 36 37 38 39 40 42 42 42 42 41 41 41 41 41 41 41 41 41 41 41 40 39 38 38 37 37 36 34 33 32 30 29 27 27 26 25 25 23 22 22 20 18 18 14 11 14 15 12 12 14 14 13 12 11 10 8 9 10 10 10 10 10 10 9
34 35 35 36 36 35 34 33 31 31 33 34 34 35 36 36 36 35 34 34 34 35 36 38 39 40 42 42 43 43 43 42 42 42 42 41 41 41 42 42 42 42 41 40 39 38 37 37 36 34 33 31 30 29 28 28 27 25 24 22 22 21 19 19 17 14 15 17 15 14 15 15 14 13 12 10 9 11 12 11 10 11 11 11 10
34 34 35 36 37 36 35 34 32 32 34 35 36 36 36 36 37 36 36 35 34 35 36 37 38 39 41 42 44 44 44 43 43 43 43 43 42 43 43 44 44 44 44 42 41 40 39 38 37 36 34 32 32 31 29 29 28 25 24 23 21 20 19 18 17 16 17 18 18 17 16 16 15 13 12 11 12 13 13 11 12 14 13 12 12
33 33 35 36 36 35 35 35 34 34 35 36 37 37 37 37 37 37 37 36 35 36 36 37 37 38 41 43 43 44 44 44 44 44 44 44 44 45 45 46 46 46 45 44 43 42 41 40 39 37 37 36 34 32 31 29 27 25 24 22 20 19 18 17 16 16 17 19 19 18 16 15 14 13 13 13 14 14 14 13 14 15 15 14 14
33 33 34 35 35 36 36 35 36 36 37 37 38 37 37 38 38 38 37 36 36 36 37 37 37 38 40 42 43 44 44 45 45 45 45 44 45 45 46 47 47 46 47 46 46 45 43 41 41 40 39 37 35 33 32 30 28 26 23 22 20 18 17 17 16 15 15 17 18 17 15 14 14 14 14 15 15 15 15 16 17 17 17 16 15
33 33 34 35 36 37 37 38 38 38 38 38 38 38 38 39 39 39 38 37 37 38 38 38 38 38 40 41 42 43 43 44 45 45 45 45 45 45 45 46 47 47 47 47 46 45 44 43 42 42 41 39 37 36 34 31 29 26 23 21 20 18 18 17 16 15 15 15 15 15 15 16 16 16 16 16 15 16 17 19 19 19 19 18 17
33 34 35 35 37 39 40 40 39 38 38 37 37 38 39 40 40 40 39 39 39 40 39 39 39 39 39 40 42 43 43 43 44 44 45 45 45 45 45 45 45 45 45 45 46 45 45 45 44 43 42 40 39 38 36 32 29 26 23 21 20 19 18 17 16 15 15 15 15 15 16 17 17 17 17 15 16 17 19 21 22 21 20 19 18
33 34 35 36 39 41 41 40 39 38 37 37 37 38 39 40 40 40 40 41 42 42 41 40 39 39 39 40 41 42 43 42 43 43 44 44 44 44 45 44 44 43 43 44 46 46 47 46 45 44 43 41 40 39 37 34 30 26 23 21 20 19 18 17 16 16 17 17 16 17 17 17 18 18 17 16 17 21 22 22 23 22 20 19 18
33 34 36 38 42 43 40 39 39 38 37 37 38 38 38 39 40 40 41 42 42 42 42 41 40 40 40 41 41 42 43 44 44 45 44 44 44 43 43 44 43 43 44 44 45 46 47 46 45 44 43 41 40 38 35 31 27 25 24 22 21 19 18 17 17 18 18 17 18 18 17 19 21 20 19 20 21 22 21 20 21 22 20 20 20
34 35 37 40 43 41 38 38 38 37 38 38 38 37 38 39 39 40 41 42 42 42 41 41 41 42 41 41 41 42 43 45 46 46 46 45 45 44 44 44 44 44 44 44 43 44 45 46 45 45 43 41 39 36 32 27 22 19 19 19 18 18 18 19 19 20 19 19 20 20 19 21 23 22 22 22 22 22 21 20 21 21 20 20 21
34 35 38 41 41 38 37 38 37 37 38 38 37 37 37 38 39 41 41 41 41 41 40 40 41 41 41 41 41 42 44 45 45 45 45 46 46 45 45 45 45 44 44 44 45 44 45 45 45 45 43 40 38 34 30 25 21 18 16 14 13 14 16 18 20 21 21 21 22 21 21 23 24 23 23 23 22 22 22 21 20 21 19 18 19
34 36 39 39 38 38 38 38 37 37 38 38 37 36 36 37 39 40 41 41 40 39 39 40 41 40 40 40 41 42 43 44 44 44 45 46 46 46 45 45 45 45 45 46 47 46 46 46 45 45 43 40 38 35 30 25 22 19 16 13 12 13 15 17 19 21 22 23 23 23 23 24 24 24 24 23 22 21 20 20 20 21 21 20 21
33 36 37 38 38 39 38 37 37 37 37 37 37 36 36 38 40 41 41 40 39 39 40 40 40 40 40 41 41 42 43 43 43 44 45 46 46 46 46 46 47 47 47 47 47 47 47 46 45 45 43 41 40 37 32 27 24 20 16 14 13 15 17 19 20 21 22 23 24 25 24 24 25 25 24 21 19 18 18 19 20 21 22 24 26
33 35 37 38 39 38 37 36 37 37 37 36 36 36 37 40 41 40 39 38 38 40 40 40 40 41 41 42 41 41 41 42 43 45 46 46 47 47 47 47 47 47 48 48 48 47 48 47 47 46 45 44 42 38 33 29 26 22 18 15 14 17 20 22 24 24 24 25 26 26 24 24 25 25 23 20 18 18 19 20 20 22 23 25 26
31 33 36 38 38 36 36 36 36 36 36 36 36 37 38 39 39 39 38 38 39 39 39 39 40 41 41 41 40 40 41 43 44 45 46 46 47 47 45 44 45 47 47 48 47 47 49 49 48 48 47 45 43 39 34 30 27 23 18 16 16 18 21 23 24 26 27 28 28 27 25 25 25 25 23 21 20 20 20 21 21 21 22 23 24
29 33 36 37 36 35 36 37 37 36 35 35 36 37 38 39 38 37 36 36 37 37 38 39 40 40 40 39 39 39 41 42 44 45 46 46 46 45 41 39 40 42 43 44 44 45 47 47 47 47 47 46 43 39 34 30 27 22 18 17 19 21 22 22 23 26 28 29 29 28 27 26 25 25 24 22 21 21 20 21 21 20 20 21 24
31 34 36 35 35 36 37 37 36 35 34 34 36 37 38 37 36 35 35 35 35 36 37 37 38 38 39 39 39 39 39 41 43 45 46 47 46 45 42 38 36 36 37 40 41 41 42 43 44 45 45 45 42 38 34 30 26 21 19 20 21 24 25 24 24 26 29 30 31 30 29 28 27 26 25 22 22 21 20 21 22 20 19 19 21
33 34 34 35 36 36 36 36 36 35 34 35 37 37 37 36 35 35 35 35 35 35 35 35 35 36 38 39 40 39 39 40 42 43 45 46 45 44 41 38 36 35 33 34 36 38 38 39 41 44 44 42 40 38 35 31 26 22 21 22 24 27 28 26 24 25 27 29 30 30 29 28 26 25 22 20 19 19 20 21 21 19 19 19 21
33 33 34 35 35 34 34 35 36 35 36 37 37 37 36 35 34 34 35 35 34 34 33 32 33 34 35 37 38 39 39 39 40 42 43 44 43 41 38 36 35 35 33 32 33 36 38 39 40 41 41 39 39 40 37 32 27 24 24 25 27 30 31 27 24 23 24 25 26 26 25 24 22 20 19 18 17 18 20 21 20 19 21 22 22
31 31 33 33 32 32 33 35 36 37 37 37 37 36 36 35 34 34 34 34 33 32 31 32 32 32 33 34 36 37 38 37 38 39 40 41 42 41 39 37 35 34 34 35 35 35 36 38 39 38 38 37 39 40 37 32 28 26 27 28 30 32 30 26 22 21 20 20 20 21 21 19 18 18 18 19 19 19 20 21 21 21 22 22 22
29 30 30 30 30 31 32 34 36 37 38 37 35 35 35 34 34 34 34 33 31 30 30 31 31 31 32 33 34 36 36 36 36 37 38 39 41 42 41 39 38 35 34 35 35 35 36 38 39 38 37 37 38 38 35 31 28 29 31 32 31 29 26 23 21 18 17 17 17 18 18 17 16 17 18 20 20 20 20 21 23 24 24 25 24
28 28 28 28 29 30 31 32 34 35 35 34 33 33 33 33 34 34 33 32 31 30 30 29 29 29 30 31 32 33 34 34 33 33 34 36 38 40 39 36 36 36 34 33 33 34 36 38 39 38 37 37 35 33 32 31 30 32 32 29 26 25 24 22 20 17 17 17 17 17 17 16 17 18 18 19 19 18 18 18 19 21 24 27 27
26 26 26 27 28 28 30 31 32 33 33 33 32 32 32 32 32 32 32 31 29 28 27 27 26 26 25 26 29 30 31 32 31 30 31 33 35 37 35 31 31 33 34 34 34 34 34 35 36 37 36 35 32 30 30 30 30 30 28 25 24 24 23 22 20 19 18 18 18 17 17 16 17 17 17 16 14 13 12 12 12 14 18 22 25
24 25 25 26 27 28 28 29 30 31 31 31 31 31 30 30 31 31 31 30 27 25 24 24 23 22 21 22 23 25 27 27 26 26 28 30 32 33 32 30 29 31 32 32 32 32 31 32 33 33 32 31 29 28 28 28 27 26 25 25 24 23 22 22 21 20 19 18 18 17 17 17 17 16 15 13 11 10 10 11 12 14 17 20 23
22 24 25 26 26 26 26 27 28 30 30 30 30 30 29 29 28 28 28 28 26 23 23 23 22 21 20 20 21 22 24 24 24 25 27 29 30 32 34 33 32 32 31 29 29 30 30 30 30 28 27 26 25 25 25 24 24 24 25 25 24 22 22 22 21 20 19 19 18 18 18 17 17 15 13 12 11 11 12 14 15 17 19 22 24
22 23 24 24 24 24 24 25 25 27 28 29 30 30 30 30 28 27 26 26 25 23 22 22 21 20 20 21 22 23 24 25 26 27 28 29 31 33 35 34 33 32 31 29 29 28 28 28 26 25 25 25 25 25 24 23 23 24 24 24 23 22 22 22 21 21 20 19 18 18 18 17 15 14 12 12 13 14 15 16 18 19 20 22 24
21 22 22 21 21 21 21 22 22 24 25 27 28 28 29 29 27 25 25 24 22 21 21 22 22 21 21 22 24 25 26 27 28 28 29 30 31 32 33 33 32 30 29 28 28 27 26 25 25 24 25 25 25 25 24 23 24 24 23 23 22 22 22 22 21 21 19 19 18 18 17 15 14 14 13 13 14 15 15 16 18 18 18 20 22
20 20 19 18 18 18 19 20 20 21 23 25 27 27 27 28 27 26 27 26 25 23 23 23 23 24 23 23 23 23 23 25 29 31 32 32 31 31 32 33 32 31 30 29 28 26 25 24 24 24 25 24 24 24 24 24 24 24 24 23 22 22 21 20 19 19 18 18 18 17 17 16 16 15 14 13 14 14 14 15 16 16 17 18 21
18 18 17 16 16 17 18 19 20 20 21 22 23 24 26 27 28 27 27 28 28 27 26 26 26 25 25 26 27 26 25 28 32 34 34 34 34 34 34 35 34 33 32 31 29 27 25 25 25 26 26 26 26 26 26 25 24 24 24 23 22 22 21 20 20 20 19 18 18 18 18 17 16 14 13 13 14 14 14 14 14 15 17 19 20
17 16 15 15 16 16 17 17 18 19 20 20 19 18 19 22 25 25 25 25 27 27 27 27 28 27 26 27 30 30 29 31 32 33 33 34 35 35 35 35 35 34 32 31 30 28 28 28 28 29 29 28 28 28 27 26 25 24 24 23 22 21 19 19 20 19 18 18 18 18 18 17 15 14 14 14 15 15 15 15 15 16 18 19 20
16 15 15 15 16 16 16 16 16 17 18 18 18 16 14 14 17 19 21 22 23 24 25 25 26 27 27 27 27 27 26 26 28 31 34 35 36 36 35 34 33 32 31 30 30 30 29 28 28 29 29 29 28 29 28 27 26 26 25 23 22 20 20 19 19 18 18 18 18 17 17 16 15 14 15 15 16 15 15 16 16 17 19 19 19
17 16 16 16 16 15 16 16 16 16 16 16 15 15 13 11 10 11 14 17 19 20 21 21 22 23 24 24 24 24 23 21 22 28 33 34 34 35 33 31 30 30 30 31 31 29 29 28 27 28 29 29 28 29 28 28 27 26 26 24 23 22 21 20 18 18 19 19 18 18 17 16 16 16 16 16 16 16 17 17 18 18 18 18 19
18 17 16 15 15 16 16 16 16 16 16 15 15 14 14 13 11 10 8 10 12 14 15 16 17 18 20 21 20 20 19 17 16 22 28 30 29 29 28 27 27 27 29 31 30 28 28 28 27 28 29 29 28 28 27 27 27 26 25 24 24 23 21 18 17 18 19 19 18 17 16 16 17 18 18 17 17 17 18 18 18 17 17 18 19
18 17 17 17 17 17 18 18 17 17 16 16 15 14 13 14 14 15 13 10 10 9 10 11 12 13 16 17 16 15 15 14 14 18 23 25 24 24 24 24 24 25 28 30 29 27 27 28 27 27 29 28 27 27 27 26 25 24 23 24 23 21 19 17 18 19 19 18 18 17 16 16 17 18 18 17 17 17 17 17 17 17 17 18 19
17 17 17 18 18 18 18 18 18 18 17 17 17 16 15 15 16 15 14 12 12 11 10 10 10 12 13 14 13 13 14 15 16 18 22 24 23 24 25 24 24 25 27 28 28 28 28 28 27 27 28 28 27 27 26 25 23 23 23 23 21 18 17 17 18 19 18 17 17 17 17 17 18 18 18 18 17 17 18 18 18 18 18 18 19
18 17 18 18 18 18 18 18 18 18 18 18 18 17 17 18 18 16 15 14 14 14 14 14 13 13 13 14 14 14 15 17 18 20 22 23 24 27 28 27 26 26 26 27 27 27 27 27 27 27 27 26 26 25 23 23 23 23 22 21 18 17 17 18 19 18 17 17 17 18 18 19 19 18 18 18 18 19 19 19 18 18 18 18 18
19 19 20 20 20 19 19 19 19 19 19 19 19 18 19 19 19 18 17 17 17 17 17 18 17 17 16 15 15 15 16 17 18 19 21 22 24 27 29 28 27 26 25 26 26 26 25 25 26 25 25 25 23 22 22 21 22 21 19 17 16 16 18 18 18 17 17 17 18 18 19 19 19 18 18 18 18 17 17 17 16 17 17 17 16
21 21 21 22 22 22 21 21 21 20 20 20 20 20 19 19 19 18 18 18 18 18 19 19 19 19 19 18 18 18 18 18 19 20 21 23 25 26 26 26 26 25 24 25 25 25 24 23 23 23 23 22 21 21 21 20 20 19 18 16 16 16 17 17 17 17 18 19 19 19 19 19 18 18 18 17 17 16 16 16 16 17 17 17 17
21 20 21 22 22 22 22 22 22 21 21 21 21 21 21 21 20 19 19 19 19 20 20 20 20 20 22 23 23 22 22 21 22 23 24 25 25 25 24 24 23 23 22 22 23 22 21 21 20 20 21 21 20 20 20 20 19 19 18 17 17 18 19 20 20 19 20 20 20 19 19 18 18 17 17 16 16 15 15 16 17 18 18 19 19
19 19 19 20 21 21 21 22 22 22 23 23 22 23 23 23 22 21 21 21 21 21 22 21 20 22 24 25 25 25 23 22 22 23 23 22 21 21 21 20 20 20 20 20 20 20 20 19 19 19 19 20 20 20 20 19 18 18 18 19 20 20 20 21 21 21 21 21 20 19 19 18 16 16 16 15 15 15 16 17 17 18 18 19 20
18 18 19 19 19 20 20 20 21 22 22 22 22 22 22 22 22 21 21 21 21 21 20 18 17 19 23 24 23 22 20 18 19 20 20 20 19 19 19 18 18 18 18 18 18 18 18 17 17 18 19 20 20 20 20 18 17 18 20 21 21 20 20 21 23 22 22 21 20 19 19 18 17 17 17 16 16 17 17 18 18 18 19 19 19
17 17 17 18 18 19 19 19 19 19 20 20 20 20 20 20 20 20 19 19 19 19 18 16 15 17 21 22 20 19 17 17 18 19 19 18 18 17 17 16 16 15 15 15 16 16 17 17 17 18 19 20 20 20 19 18 18 19 20 21 21 21 22 22 23 23 22 22 21 20 19 19 19 19 18 17 17 17 17 17 18 18 19 19 19
16 16 16 16 17 17 17 17 17 17 18 18 17 16 16 17 17 18 17 17 16 17 17 15 14 16 19 20 19 17 16 15 16 17 17 17 17 16 15 15 15 15 15 15 15 15 15 16 17 18 18 19 19 18 18 17 17 18 19 19 20 20 21 21 21 21 21 21 20 20 19 19 19 19 18 17 17 17 16 17 17 18 18 18 18
14 14 14 14 13 13 14 15 15 16 16 15 14 13 13 14 14 14 14 14 14 14 15 15 15 16 18 18 17 16 15 14 14 15 16 16 16 16 15 15 15 15 15 15 15 15 15 16 17 17 17 17 17 16 16 16 16 16 17 17 17 17 18 18 18 19 19 19 19 19 19 18 18 18 18 17 17 16 16 17 17 17 17 17 17
15 15 14 13 12 12 12 13 14 14 14 14 13 12 12 12 12 12 12 13 14 14 15 16 17 17 18 17 16 15 14 13 13 14 15 15 15 16 15 15 15 14 15 15 15 16 16 16 17 17 17 17 17 17 17 17 17 18 18 18 18 18 18 17 17 17 17 17 18 17 17 17 17 17 16 16 16 16 16 16 16 16 16 16 17
15 16 16 15 15 14 13 14 14 14 14 14 14 13 12 12 12 12 12 13 14 15 16 17 18 18 17 17 16 15 14 14 14 14 14 14 15 15 15 14 14 14 14 14 14 15 15 15 16 16 16 16 16 16 16 16 16 17 17 18 19 19 19 19 18 18 18 17 17 17 16 16 16 15 15 14 14 15 15 16 16 16 16 16 17
16 16 16 16 16 16 15 14 14 14 14 14 14 14 14 13 13 13 13 13 14 15 16 17 18 17 16 16 15 15 14 14 14 13 13 14 14 14 14 13 13 13 13 13 13 13 14 14 14 14 14 14 14 14 15 15 16 16 17 18 19 19 20 19 19 19 18 18 17 16 16 15 15 14 14 14 14 14 15 15 15 16 16 16 16
15 16 17 17 17 17 16 15 15 15 15 15 15 15 15 14 14 14 14 13 14 14 15 16 16 16 15 15 14 14 14 13 12 12 12 12 12 12 12 12 12 12 12 12 12 13 13 13 13 13 13 13 13 14 14 15 15 16 17 17 17 18 17 17 17 17 16 16 16 15 14 14 14 13 13 14 14 14 14 14 15 15 15 15 16
14 15 17 17 17 17 17 16 16 16 16 16 16 15 15 14 14 14 14 13 13 14 14 15 15 15 14 14 13 13 12 12 11 10 10 10 9 10 10 10 10 10 10 10 11 11 11 11 11 11 12 12 12 13 13 14 14 14 15 15 15 15 15 15 15 15 14 15 15 14 14 14 13 13 13 13 13 14 14 14 14 14 14 15 16
15 16 16 17 17 17 17 17 17 17 17 16 17 16 15 15 14 14 13 13 13 13 13 13 13 12 12 12 11 11 10 9 9 8 8 8 8 8 8 8 8 8 8 9 9 9 9 10 10 10 10 11 11 11 12 12 12 13 13 13 13 14 14 14 14 14 13 13 13 13 13 13 13 13 13 13 14 14 15 15 15 16 16 16 16
16 16 17 17 17 16 16 16 17 17 16 16 17 16 16 15 15 14 13 12 12 12 11 11 10 10 9 9 8 8 8 8 7 7 6 6 6 6 6 6 6 7 7 8 8 8 9 9 9 9 9 9 10 10 11 11 12 12 13 13 13 14 14 13 13 13 13 13 13 12 12 13 12 12 13 13 14 15 16 16 16 17 17 17 17
Wind_Direction
230 231 231 230 231 231 230 229 227 224 223 223 223 222 222 224 227 228 226 224 224 224 225 226 226 224 219 216 212 209 208 208 206 206 206 206 207 207 204 200 199 199 197 195 194 195 195 195 195 197 196 193 191 190 190 190 192 193 193 195 196 197 198 195 188 179 191 201 203 203 204 206 214 225 234 244 251 251 253 257 261 265 264 263 265
232 232 232 232 231 232 233 232 228 224 222 223 223 221 221 222 224 225 226 226 227 229 230 228 226 223 219 215 211 208 208 207 207 206 205 206 206 205 204 200 198 198 196 194 193 194 195 196 196 195 195 194 192 190 190 189 190 191 191 194 198 198 199 199 194 182 185 194 197 200 205 211 220 227 235 247 252 253 259 264 268 269 265 265 269
235 234 233 233 233 231 232 231 229 225 223 223 224 222 222 221 221 223 226 229 231 232 231 228 224 221 217 213 210 208 208 208 207 207 206 206 205 204 203 201 199 198 196 195 194 194 195 196 195 192 191 191 190 189 191 191 191 191 190 192 196 196 198 201 198 190 187 191 197 204 210 217 225 231 238 248 253 257 264 270 271 269 267 270 273
236 235 235 235 234 231 230 229 228 226 224 224 224 223 222 222 221 222 225 228 230 230 229 227 223 219 215 212 210 209 209 209 207 207 207 207 206 205 203 202 200 200 199 198 197 196 195 195 194 192 189 188 187 187 189 190 191 191 189 190 193 194 196 199 203 200 193 193 200 209 218 226 232 234 239 246 252 261 270 274 271 269 270 274 277
236 235 236 236 236 233 230 228 228 228 226 224 224 223 222 222 222 222 224 226 227 226 224 223 221 219 216 214 212 211 211 210 208 207 208 208 208 206 204 202 202 202 201 201 199 197 197 196 194 192 189 186 185 187 189 189 190 190 189 189 190 194 197 198 202 204 201 201 203 207 217 229 235 239 242 248 255 265 274 276 273 272 272 275 280
235 235 235 235 236 235 233 230 228 228 227 225 224 223 222 222 222 223 224 225 226 223 221 221 221 220 219 218 216 214 212 211 210 209 208 208 207 206 204 203 202 203 202 202 201 199 199 197 195 192 190 188 187 189 189 189 189 189 190 190 190 194 198 199 201 204 209 211 207 206 215 227 234 240 245 251 260 268 273 273 272 272 273 278 282
234 233 233 234 236 236 235 232 230 229 229 227 225 223 222 222 223 224 225 224 224 222 220 220 221 221 220 220 219 217 214 211 210 209 208 207 205 204 204 203 202 202 203 202 202 201 200 199 196 194 193 191 190 190 188 187 187 189 190 190 191 195 199 201 204 207 212 216 215 216 222 228 234 241 246 253 260 265 266 265 268 272 276 279 282
233 233 232 233 236 237 236 235 233 231 231 230 227 224 222 222 223 224 225 224 223 222 220 220 220 220 220 220 220 219 216 213 211 209 208 206 205 204 204 203 202 202 203 203 203 202 200 199 198 196 195 195 194 193 189 184 184 187 191 192 194 197 201 204 207 212 216 219 222 227 230 232 236 240 243 245 249 257 261 260 266 275 280 281 282
232 232 231 232 237 238 236 235 234 233 231 231 229 226 223 223 223 223 224 224 223 222 221 220 219 219 219 219 219 218 217 215 214 211 208 207 205 204 203 203 203 203 202 202 202 201 200 200 199 198 197 197 196 194 188 182 181 184 188 191 195 199 204 208 212 215 217 219 226 231 232 235 240 240 240 242 249 258 264 261 265 275 281 282 281
233 232 231 234 238 239 237 236 234 231 230 230 229 227 224 222 222 222 222 222 222 222 221 219 218 218 218 217 218 217 217 217 216 213 210 208 206 204 203 203 204 203 202 201 200 200 200 201 200 198 197 196 194 191 184 180 181 183 184 188 193 200 207 212 216 219 217 220 228 230 228 236 246 246 246 253 258 260 262 261 265 275 280 281 281
235 233 234 237 238 237 237 236 233 230 229 229 228 227 225 222 221 222 221 221 221 221 219 219 219 219 218 218 218 218 218 218 217 214 211 209 207 205 203 202 202 203 202 201 199 199 199 199 198 197 195 193 190 186 181 179 182 184 185 188 196 209 216 217 219 221 220 224 231 231 230 240 253 257 256 260 262 260 262 264 268 273 273 271 276
238 236 237 239 238 236 236 235 232 231 229 228 227 226 224 223 222 222 221 221 220 219 219 220 220 219 219 219 219 219 219 219 217 214 212 211 209 207 204 202 201 202 203 202 201 199 198 197 196 195 193 190 187 184 181 181 184 185 185 190 205 223 230 230 230 228 226 228 231 233 237 246 256 261 260 261 262 264 268 268 267 268 266 261 263
241 239 240 239 237 237 236 233 232 231 229 228 227 225 223 223 223 222 221 220 219 218 219 220 220 219 218 218 219 220 220 219 217 215 214 212 210 207 206 204 203 202 203 203 201 199 197 195 193 193 192 189 186 183 181 183 186 186 186 194 211 228 235 239 242 241 239 236 234 238 247 252 257 263 264 263 264 268 270 268 267 267 263 262 265
242 241 241 240 239 237 235 233 232 231 230 228 226 224 223 224 224 223 221 219 218 218 218 218 219 219 218 218 219 220 220 219 218 216 214 212 210 209 209 207 204 203 204 204 203 200 197 194 192 191 190 188 186 183 182 183 186 186 189 199 218 232 237 239 242 243 243 242 240 245 256 260 262 266 267 265 267 271 272 271 271 270 268 270 274
244 243 243 242 240 237 234 233 232 231 229 226 224 223 223 224 224 222 221 220 218 218 218 218 219 220 220 219 218 219 220 220 218 216 213 211 210 211 210 207 203 202 203 204 203 200 198 196 194 191 189 187 187 185 185 185 186 186 192 208 225 235 240 243 244 244 245 246 248 252 260 266 268 267 266 269 274 277 278 276 274 273 273 274 274
247 246 244 243 241 237 235 234 233 231 227 224 223 223 224 224 223 221 220 220 220 219 219 219 220 220 220 219 218 219 221 220 218 216 213 212 210 209 209 208 203 201 201 201 201 200 198 196 194 191 189 187 187 188 188 188 187 190 201 218 230 237 242 248 250 250 250 251 253 256 261 265 268 267 269 273 276 277 277 274 270 268 268 269 269
250 248 246 244 243 240 237 234 233 231 227 223 224 224 224 224 223 220 219 219 220 220 220 220 221 220 220 219 219 220 221 220 219 216 213 211 208 206 207 207 204 202 200 198 199 199 198 196 193 191 189 188 188 190 192 192 193 198 209 223 232 238 243 246 249 252 252 251 253 255 259 263 265 267 271 273 275 275 269 263 263 261 259 261 266
254 252 249 249 247 243 238 235 233 230 227 225 225 225 225 224 222 219 218 219 220 221 221 221 221 221 221 220 220 220 221 220 218 215 213 210 206 204 204 203 201 201 200 197 197 198 197 196 194 192 191 190 191 193 195 196 199 205 215 227 235 240 244 245 248 254 255 252 252 253 256 259 261 263 266 268 269 267 260 258 262 260 254 253 261
259 258 257 256 251 245 240 236 233 230 228 227 226 225 225 223 221 219 218 219 221 221 221 221 221 222 223 223 222 221 221 221 219 216 214 211 206 203 202 200 197 195 194 194 196 197 197 196 195 194 193 193 195 198 199 200 204 212 223 232 238 243 246 247 252 260 260 257 257 257 256 257 258 259 262 262 257 254 255 260 263 259 255 256 260
270 268 265 261 254 248 243 238 234 232 230 229 227 225 224 222 220 218 217 218 219 219 219 220 221 223 223 223 223 222 221 221 220 217 214 211 207 204 201 198 195 191 190 192 193 195 196 195 194 194 195 197 200 201 202 204 210 220 230 237 242 246 249 251 258 264 265 263 263 261 257 256 257 257 258 257 251 246 248 254 259 258 258 258 257
279 274 269 264 257 251 246 240 237 235 233 230 227 224 223 221 218 216 215 215 215 216 217 218 220 222 223 223 224 223 221 221 220 216 212 208 206 204 201 198 195 190 189 192 192 191 193 194 193 194 196 200 202 202 202 207 215 226 237 244 249 250 250 255 261 264 263 261 258 254 251 252 253 253 252 252 250 248 248 252 257 260 261 261 259
281 277 271 265 258 252 247 243 239 236 233 229 224 221 220 219 217 214 212 211 212 213 214 215 217 220 221 222 222 222 221 220 220 216 210 207 207 206 203 199 195 191 189 191 193 193 194 194 193 194 197 200 201 201 203 210 220 232 243 249 249 248 250 256 260 258 256 254 250 247 248 250 251 250 249 249 250 252 254 256 257 260 263 265 263
282 276 268 262 257 252 247 243 238 234 231 226 221 218 216 214 212 211 209 208 209 210 211 212 214 215 217 218 220 222 222 221 219 216 210 207 207 208 204 199 197 196 194 194 195 195 195 195 194 195 197 199 199 200 206 216 228 238 246 246 242 244 250 253 253 252 251 249 246 247 249 250 250 249 248 250 254 259 261 260 258 257 258 261 263
281 272 265 259 254 249 244 240 235 231 227 222 218 214 211 208 207 206 205 204 204 207 208 207 208 208 209 210 213 216 217 216 215 212 207 203 203 204 204 200 199 202 202 200 199 199 199 199 198 197 197 198 200 206 216 228 235 239 240 239 239 242 244 245 246 246 244 243 243 247 249 250 250 250 252 259 267 269 266 262 260 258 255 256 259
276 268 262 256 251 245 239 234 229 226 223 218 213 209 205 203 202 201 202 201 201 203 203 202 202 202 201 201 201 205 208 208 205 202 200 198 198 201 204 203 202 204 205 204 204 203 202 202 201 199 198 200 206 218 230 235 234 232 232 233 236 236 236 238 239 237 236 238 242 246 250 253 255 259 267 275 273 268 266 264 260 257 255 254 256
271 265 259 254 249 242 234 228 221 219 217 213 211 208 204 200 199 199 199 200 201 201 198 198 198 197 197 196 193 194 197 197 194 193 193 194 197 201 204 204 204 205 205 205 205 203 202 202 201 199 201 209 219 228 231 227 223 224 226 227 228 229 229 230 229 229 233 237 241 247 253 258 263 269 273 272 268 266 266 262 257 254 253 254 256
266 260 254 249 243 235 229 222 215 211 209 206 205 205 203 201 199 197 197 197 198 198 196 195 195 195 195 193 190 188 189 189 188 188 189 191 194 198 200 200 200 199 199 200 200 199 199 200 202 206 212 219 225 226 222 217 215 216 217 218 220 222 224 226 228 230 234 238 243 249 255 259 262 264 264 263 264 265 262 255 252 252 254 255 255
262 257 251 243 235 228 223 218 212 207 205 202 200 199 199 199 199 200 201 199 197 196 196 197 197 197 195 189 183 182 185 189 190 188 187 187 188 190 193 194 194 193 193 193 193 195 197 200 205 210 212 211 210 210 210 210 209 209 211 213 216 219 221 224 227 231 235 238 242 246 251 253 254 255 257 258 257 256 253 248 247 252 256 254 251
258 253 248 238 229 223 217 214 211 206 202 201 200 199 200 200 202 205 206 206 205 203 202 202 203 202 197 190 185 183 188 195 196 192 188 186 186 187 188 190 192 193 193 192 191 191 194 196 196 195 194 194 195 198 201 203 204 207 211 214 215 218 219 219 222 227 231 234 238 243 246 249 250 251 252 253 252 252 249 245 248 256 257 252 249
252 246 239 230 223 218 211 209 207 203 199 196 195 198 203 206 206 207 208 209 211 210 209 209 208 203 199 197 197 198 201 202 198 194 191 190 190 191 191 191 192 193 192 193 192 189 188 187 187 187 188 190 192 195 197 200 202 205 209 211 213 215 216 217 221 224 227 230 234 239 242 243 246 248 249 250 251 250 247 248 254 258 253 247 247
242 236 229 221 216 211 206 203 200 198 196 194 190 189 192 200 208 211 210 209 210 211 213 214 211 206 203 204 206 207 210 208 202 197 195 194 193 194 194 193 194 193 192 190 188 186 186 186 187 189 191 193 196 198 199 200 202 203 205 207 211 213 213 216 219 221 224 228 231 236 239 241 245 249 250 249 248 246 247 251 254 252 248 246 249
234 228 222 216 211 206 200 196 192 190 189 189 187 184 178 174 183 202 211 212 213 213 214 215 214 211 210 208 206 205 208 211 207 202 199 197 197 197 196 195 194 193 190 188 186 186 187 188 190 192 194 197 200 202 202 203 205 206 205 205 208 211 212 215 219 220 222 225 227 231 235 239 244 249 252 250 248 248 250 251 249 246 246 247 252
232 224 216 208 203 199 195 190 187 186 184 183 182 180 175 165 155 154 173 197 208 213 215 215 214 211 210 210 209 207 207 208 204 200 198 196 195 194 192 191 190 187 185 187 188 189 191 194 196 197 198 201 203 204 205 207 208 208 208 208 207 209 211 214 217 219 221 224 226 229 232 237 242 246 248 248 247 247 247 247 245 243 244 247 253
229 223 214 206 200 195 192 188 185 184 183 182 181 180 178 171 160 150 147 152 164 179 194 202 204 204 204 206 207 205 203 199 193 192 191 187 185 185 184 184 184 185 188 192 193 194 195 197 200 201 202 203 205 205 206 208 208 208 210 210 207 208 211 214 216 219 221 223 225 226 230 234 237 240 241 243 244 245 244 244 243 243 244 248 253
222 219 213 207 200 195 192 189 186 184 183 183 183 183 181 175 167 161 158 153 147 148 156 167 180 192 196 197 195 195 193 190 186 185 185 182 180 178 175 173 177 184 192 197 199 199 199 199 200 202 202 203 204 205 204 204 204 204 204 202 203 208 213 214 215 217 219 220 223 227 230 232 234 236 238 238 239 240 243 244 244 244 247 250 253
214 210 205 201 197 193 192 189 187 187 186 185 186 186 183 180 175 170 167 163 154 148 146 151 161 175 182 184 185 184 183 181 178 177 176 175 172 170 168 169 173 180 188 195 198 200 201 202 201 202 202 202 203 203 202 201 199 199 199 200 206 214 216 214 214 215 217 220 225 229 232 234 235 236 236 237 239 241 243 246 246 247 249 250 252
210 204 199 196 194 192 191 190 190 190 190 188 188 186 184 183 181 176 171 167 162 157 153 153 155 158 163 169 174 173 170 167 165 164 165 166 168 172 174 174 174 179 185 191 194 197 199 201 201 200 200 199 198 197 197 197 197 199 203 209 216 218 217 217 218 218 219 222 225 228 231 234 236 237 236 236 238 240 243 246 247 248 250 250 250
213 206 200 195 193 191 190 189 189 190 189 188 188 186 184 183 182 180 176 171 168 164 160 159 158 157 157 162 167 164 157 153 153 157 162 168 174 181 183 180 179 182 186 189 191 193 194 195 197 197 196 195 194 194 196 198 202 206 210 214 218 221 222 223 222 222 222 224 225 228 230 232 234 237 236 235 237 240 244 246 246 247 248 246 244
216 210 204 198 194 192 190 188 186 186 186 186 187 187 186 185 184 183 180 176 173 171 168 167 168 167 164 164 164 162 158 157 161 165 170 175 182 187 188 186 185 186 186 186 188 190 189 189 192 194 195 196 197 199 201 204 208 212 214 216 220 223 224 224 223 222 223 225 227 228 230 232 234 235 234 233 236 241 245 247 247 247 247 246 247
215 209 205 199 195 194 192 189 187 186 186 187 188 188 189 189 188 186 182 179 178 178 177 176 177 176 172 169 168 168 167 169 171 173 174 179 184 188 190 191 190 189 189 189 189 191 192 194 195 197 198 201 203 204 206 208 211 215 218 221 223 226 226 227 226 226 226 227 229 230 231 233 233 232 233 237 242 246 248 250 252 252 251 252 254
216 209 203 199 196 194 191 189 189 189 188 189 190 191 191 192 191 188 186 183 182 182 182 183 183 180 177 174 174 175 176 176 176 178 179 181 184 186 190 194 194 193 193 193 194 196 199 200 201 202 204 206 207 208 209 212 217 220 222 224 226 228 230 230 230 230 230 230 230 232 233 234 233 234 238 243 247 248 248 249 252 254 255 257 258
216 209 202 197 194 192 190 189 190 191 190 190 191 192 192 192 191 189 188 187 185 183 181 182 184 183 181 179 180 184 186 183 181 181 182 183 184 186 189 192 195 196 198 199 201 203 205 205 206 207 207 208 209 210 212 216 220 223 224 225 227 229 231 231 231 232 233 232 232 233 234 235 236 238 241 244 244 244 246 248 250 252 254 256 257
211 206 200 195 193 192 190 189 188 188 188 188 189 189 190 188 187 187 186 184 183 182 179 178 179 181 182 183 186 191 192 189 185 185 185 185 185 187 189 191 194 197 200 202 203 204 206 206 205 203 204 205 206 208 210 213 217 220 222 224 226 227 228 228 229 230 231 232 233 233 234 236 237 239 241 241 241 242 245 248 250 251 253 255 256
198 194 189 187 186 185 183 182 181 180 180 180 178 179 181 180 179 180 179 176 176 178 178 176 174 175 178 183 190 195 196 195 193 192 191 191 192 193 195 196 198 199 201 204 204 204 206 206 205 203 204 205 208 210 214 217 221 224 226 228 230 231 231 231 231 232 233 234 235 236 236 236 237 238 239 239 239 241 244 247 249 251 253 253 254
184 179 173 169 169 168 167 168 168 165 164 162 159 160 164 168 170 172 173 173 173 174 173 171 168 167 170 177 184 190 192 193 193 193 194 194 196 197 199 201 203 205 206 209 211 212 213 214 215 215 217 218 220 223 227 230 232 234 236 237 239 240 241 241 241 240 240 239 240 240 240 239 238 239 239 239 239 242 246 249 251 252 253 252 253
174 169 164 160 158 155 153 154 155 153 152 151 148 146 148 153 159 164 168 172 172 170 168 167 166 165 166 170 175 178 180 180 181 182 185 188 191 194 197 199 201 204 207 209 212 214 215 215 216 217 218 218 220 223 227 231 233 234 235 237 238 239 241 243 244 245 245 244 244 244 243 242 242 242 242 242 243 245 247 248 250 251 251 252 253
163 158 154 151 147 144 142 143 144 142 141 141 141 140 141 145 150 156 161 164 167 167 166 166 167 168 169 170 173 175 175 177 180 182 185 189 192 195 199 202 204 207 211 213 214 216 215 215 215 215 216 217 220 223 227 231 233 234 236 238 240 241 242 243 244 245 245 244 244 243 242 242 243 242 242 242 243 244 245 246 247 249 250 251 252
150 145 143 139 135 133 132 133 133 132 132 132 133 133 135 138 141 144 149 153 157 160 162 164 166 169 170 171 173 175 177 180 184 185 187 191 193 195 198 201 203 205 209 211 212 214 215 216 218 219 220 222 224 227 229 232 234 236 239 240 241 243 243 243 243 243 242 241 242 242 242 242 242 241 241 242 242 243 245 245 246 248 249 250 251
131 130 131 129 129 130 132 132 133 132 131 131 130 129 129 133 135 137 141 146 149 153 158 160 163 167 169 170 172 175 178 181 182 183 183 185 187 188 191 194 196 200 204 207 210 213 216 218 220 223 224 225 226 228 231 233 235 237 239 240 241 242 243 242 242 242 241 242 243 243 243 244 244 242 241 240 240 242 244 245 247 249 250 250 251
115 115 117 117 118 122 126 129 130 130 131 131 131 128 128 130 132 134 138 142 144 147 153 157 160 164 168 170 172 174 176 178 179 180 181 183 184 187 191 195 198 201 207 211 216 219 222 224 226 227 228 229 230 232 234 236 237 239 240 241 241 243 243 243 242 242 242 242 243 243 243 243 242 240 239 238 237 238 241 243 245 247 247 248 250
104 105 106 107 109 112 116 118 120 123 126 128 128 128 128 129 129 131 135 138 139 142 146 150 152 156 159 160 162 165 167 171 175 177 179 183 187 191 197 202 207 212 217 221 224 228 230 231 234 236 237 238 240 240 240 241 241 241 242 243 243 244 244 243 243 243 243 242 242 242 242 242 241 239 238 237 237 239 241 243 245 245 245 246 247